Location: Waldport
(44.4270°N, 124.0680°W)
Time: 14:16:59
(UTC-08:00)

Amateur Radio Satellites - All Passes

Search period start: 05 February 2016 13:46
Search period end: 06 February 2016 13:46
Location: Waldport, 44.4270°N, 124.0680°W

Satellite Date Start Highest point End Downlink Frequencies (MHz)
Time Altitude Azimuth
YUBILEINY 05 Feb 13:49:28 13:57:19 34° 67° (ENE) 14:05:05 435.215
M-CUBED/EXP-1 PRIME 05 Feb 13:52:38 13:54:12 12° 59° (ENE) 13:55:43 437.505
AO-85 05 Feb 13:52:46 13:56:52 21° 325° (NW) 14:01:00 145.980
PCSat 05 Feb 13:58:04 14:02:15 22° 319° (NW) 14:06:28 145.827
Cosmos 2491 05 Feb 13:59:14 14:03:50 16° 74° (ENE) 14:08:27 435.465 / 435.565
ITAMSAT 1 05 Feb 14:00:09 14:05:20 82° 74° (ENE) 14:10:34 435.822/435.867
SO-50 05 Feb 14:01:36 14:06:02 33° 44° (NE) 14:10:20 436.795
SWISSCUBE 05 Feb 14:01:57 14:06:35 45° 99° (E) 14:11:11 437.505
AUBIESAT-1 05 Feb 14:06:26 14:08:27 14° 60° (ENE) 14:10:25 437.475
SPROUT 05 Feb 14:22:45 14:23:16 10° 301° (WNW) 14:23:46 437.525
DANDE 05 Feb 14:25:00 14:32:39 63° 266° (W) 14:38:38 436.750
Gurwin Techsat 1B 05 Feb 14:33:41 14:38:18 30° 265° (W) 14:42:56 435.225
CUSAT 1 05 Feb 14:34:33 14:40:00 28° 276° (W) 14:44:24 437.405
KKS-1 05 Feb 14:35:24 14:37:22 13° 90° (E) 14:39:19 437.445
ITUPSAT 1 05 Feb 14:36:01 14:40:52 86° 101° (E) 14:45:41 437.325
Cosmos 2504 05 Feb 14:42:02 14:47:10 16° 55° (NE) 14:52:08 435.465 / 435.565
BEESAT 05 Feb 14:47:52 14:52:39 72° 287° (WNW) 14:57:26 436.000
TISAT 1 05 Feb 14:49:33 14:51:23 13° 299° (WNW) 14:53:11 437.305
HORYU 2 05 Feb 15:00:50 15:04:36 28° 67° (ENE) 15:08:23 437.375
JAS-2 05 Feb 15:05:22 15:10:08 17° 273° (W) 15:14:45 435.910
AO-7 05 Feb 15:23:08 15:31:29 73° 254° (WSW) 15:39:54 29.400- 29.500
M-CUBED/EXP-1 PRIME 05 Feb 15:24:46 15:28:32 55° 253° (WSW) 15:32:01 437.505
MOZHAYETS 4 05 Feb 15:28:33 15:31:53 19° 92° (E) 15:35:13
RS-15 05 Feb 15:37:33 15:47:43 35° 336° (NNW) 15:58:23 29.354- 29.394
AUBIESAT-1 05 Feb 15:39:09 15:42:47 45° 254° (WSW) 15:46:12 437.475
SWISSCUBE 05 Feb 15:40:23 15:44:06 23° 297° (WNW) 15:47:49 437.505
SO-50 05 Feb 15:42:08 15:46:35 37° 244° (WSW) 15:50:52 436.795
ITAMSAT 1 05 Feb 15:43:06 15:45:27 13° 272° (W) 15:47:50 435.822/435.867
YUBILEINY 05 Feb 15:45:58 15:54:37 60° 269° (W) 16:03:12 435.215
Cosmos 2491 05 Feb 15:50:26 15:59:08 77° 95° (E) 16:07:50 435.465 / 435.565
STARS 05 Feb 16:05:58 16:10:19 62° 101° (ESE) 16:14:38 437.465
KKS-1 05 Feb 16:09:59 16:14:24 67° 287° (WNW) 16:18:47 437.445
DANDE 05 Feb 16:12:05 16:13:36 11° 289° (WNW) 16:15:03 436.750
ITUPSAT 1 05 Feb 16:15:50 16:18:00 13° 302° (WNW) 16:20:11 437.325
Cosmos 2504 05 Feb 16:33:39 16:42:27 70° 79° (ENE) 16:50:41 435.465 / 435.565
HORYU 2 05 Feb 16:37:14 16:41:07 30° 264° (W) 16:45:01 437.375
CUTE-I 05 Feb 16:42:39 16:47:07 28° 64° (ENE) 16:51:38 437.470
ISS 05 Feb 16:44:25 16:45:52 13° 132° (SE) 16:47:22 145.825
Cubesat XI-IV 05 Feb 16:54:26 16:59:13 35° 66° (ENE) 17:04:02 437.490
O/OREOS (USA 219) 05 Feb 17:00:39 17:01:55 11° 45° (NE) 17:03:10 437.305
MOZHAYETS 4 05 Feb 17:04:51 17:09:18 47° 289° (WNW) 17:13:44
HO-68 05 Feb 17:10:26 17:11:12 10° 43° (NE) 17:12:00 435.675
AO-7 05 Feb 17:21:32 17:25:41 14° 274° (W) 17:29:51 29.400- 29.500
GOMX 1 05 Feb 17:25:57 17:29:52 21° 63° (ENE) 17:33:42 467.674
LilacSat-2 05 Feb 17:28:36 17:32:19 51° 73° (ENE) 17:36:03 437.200
BRITE-PL 05 Feb 17:31:46 17:37:04 41° 69° (ENE) 17:42:19 437.365/2234.400
CUBESAT XI-V 05 Feb 17:32:13 17:36:37 37° 97° (E) 17:40:58 437.345
DOVE 4 05 Feb 17:33:19 17:35:23 13° 59° (ENE) 17:37:27 437.250
STARS 05 Feb 17:43:45 17:46:13 15° 299° (WNW) 17:48:40 437.465
YUBILEINY 05 Feb 17:47:23 17:49:22 11° 290° (WNW) 17:51:22 435.215
BEESAT 3 05 Feb 17:49:31 17:52:36 22° 114° (ESE) 17:55:42 437.485
Cosmos 2491 05 Feb 17:50:03 17:56:56 25° 297° (WNW) 18:03:53 435.465 / 435.565
RS-15 05 Feb 17:55:01 18:04:54 29° 11° (N) 18:15:05 29.354- 29.394
BEESAT 2 05 Feb 18:05:10 18:08:12 21° 113° (ESE) 18:11:15 435.950
CANX-2 05 Feb 18:13:06 18:14:11 11° 60° (ENE) 18:15:15 2200.000
ISS 05 Feb 18:18:38 18:21:53 89° 119° (ESE) 18:25:09 145.825
CUTE-I 05 Feb 18:21:58 18:26:59 42° 262° (W) 18:32:03 437.470
Cosmos 2504 05 Feb 18:28:07 18:34:59 27° 280° (W) 18:41:34 435.465 / 435.565
Cubesat XI-IV 05 Feb 18:34:31 18:39:16 33° 264° (W) 18:44:05 437.490
O/OREOS (USA 219) 05 Feb 18:37:35 18:42:10 73° 65° (ENE) 18:46:46 437.305
HO-68 05 Feb 18:50:25 18:57:09 46° 64° (ENE) 19:03:56 435.675
CINEMA 3 05 Feb 19:00:28 19:04:25 27° 68° (ENE) 19:08:13 145.822/145.860
AO-85 05 Feb 19:00:58 19:05:20 25° 38° (NE) 19:09:27 145.980
CUTE 1.7 + AOD 2 05 Feb 19:01:36 19:05:16 30° 68° (ENE) 19:08:57 437.475
GOMX 1 05 Feb 19:02:05 19:07:30 62° 260° (W) 19:12:47 467.674
LilacSat-2 05 Feb 19:05:18 19:06:57 12° 270° (W) 19:08:37 437.200
DOVE 4 05 Feb 19:07:12 19:12:24 85° 76° (ENE) 19:17:23 437.250
CUBESAT XI-V 05 Feb 19:09:57 19:13:49 26° 294° (WNW) 19:17:40 437.345
BRITE-PL 05 Feb 19:10:32 19:15:34 32° 266° (W) 19:20:35 437.365/2234.400
COMPASS 1 05 Feb 19:11:17 19:14:29 22° 66° (ENE) 19:17:42 437.405
GONETS M04 05 Feb 19:13:44 19:20:59 27° 64° (ENE) 19:28:11
SEEDS 05 Feb 19:16:18 19:20:00 32° 69° (ENE) 19:23:45 437.485
PCSat 05 Feb 19:16:40 19:20:23 18° 38° (NE) 19:24:05 145.827
AIST 2 05 Feb 19:24:03 19:26:35 16° 110° (ESE) 19:29:07 435.215
BEESAT 3 05 Feb 19:26:23 19:30:09 39° 311° (NW) 19:33:56 437.485
STRAND 1 05 Feb 19:32:38 19:37:49 75° 103° (ESE) 19:42:59 437.568
FUNcube-1 05 Feb 19:33:39 19:34:25 10° 60° (ENE) 19:35:11 145.935
PRISM 05 Feb 19:37:11 19:40:45 26° 96° (E) 19:44:17 437.425
CUBEBUG 2 05 Feb 19:39:38 19:43:10 24° 67° (ENE) 19:46:39 437.445
BEESAT 2 05 Feb 19:42:02 19:45:51 41° 311° (NW) 19:49:43 435.950
AAUSAT CUBESAT 2 05 Feb 19:43:45 19:47:36 39° 71° (ENE) 19:51:28 437.432
CANX-2 05 Feb 19:45:12 19:49:23 82° 255° (WSW) 19:53:39 2200.000
UWE-3 05 Feb 19:50:32 19:53:56 23° 67° (ENE) 19:57:16 435.000/436.395/437.385
ISS 05 Feb 19:55:50 19:58:39 26° 348° (NNW) 20:01:29 145.825
Cosmos 2499 05 Feb 19:56:33 20:02:53 22° 60° (ENE) 20:08:55 435.465 / 435.565
DELFI C3 05 Feb 20:01:23 20:03:34 14° 63° (ENE) 20:05:45 145.870
RS-15 05 Feb 20:09:07 20:20:55 54° 42° (NE) 20:32:57 29.354- 29.394
Oscar 11 05 Feb 20:10:15 20:14:07 33° 69° (ENE) 20:18:01 145.826/435.025
O/OREOS (USA 219) 05 Feb 20:19:04 20:20:56 12° 262° (W) 20:22:49 437.305
HUMSAT D 05 Feb 20:21:08 20:21:54 10° 60° (ENE) 20:22:39 437.325/437.525
CINEMA 3 05 Feb 20:37:11 20:41:28 33° 263° (W) 20:45:35 145.822/145.860
CUTE 1.7 + AOD 2 05 Feb 20:37:37 20:41:07 25° 266° (W) 20:44:39 437.475
HO-68 05 Feb 20:38:22 20:44:56 38° 263° (W) 20:51:35 435.675
AO-85 05 Feb 20:41:12 20:46:21 65° 240° (WSW) 20:51:04 145.980
COMPASS 1 05 Feb 20:46:05 20:49:53 34° 263° (W) 20:53:42 437.405
DOVE 4 05 Feb 20:48:31 20:50:37 12° 272° (W) 20:52:43 437.250
SEEDS 05 Feb 20:52:26 20:55:46 23° 266° (W) 20:59:09 437.485
ZACube-1 05 Feb 20:54:16 20:58:32 77° 75° (ENE) 21:02:43 437.345
PCSat 05 Feb 20:59:09 21:04:38 84° 58° (ENE) 21:10:03 145.827
AIST 2 05 Feb 21:00:32 21:04:39 58° 308° (NW) 21:08:47 435.215
FUNcube-1 05 Feb 21:05:49 21:10:04 84° 260° (W) 21:14:16 145.935
GONETS M04 05 Feb 21:09:54 21:18:38 73° 266° (W) 21:27:24
PRISM 05 Feb 21:12:26 21:16:03 29° 293° (WNW) 21:19:40 437.425
STRAND 1 05 Feb 21:13:14 21:16:23 17° 301° (WNW) 21:19:33 437.568
ESTCUBE 1 05 Feb 21:14:17 21:15:28 11° 58° (ENE) 21:16:38 437.505/2401.250
AIST 1 05 Feb 21:15:05 21:17:52 16° 68° (ENE) 21:20:37
CUBEBUG 2 05 Feb 21:15:43 21:19:40 33° 263° (W) 21:23:34 437.445
AAUSAT CUBESAT 2 05 Feb 21:20:20 21:23:16 19° 268° (W) 21:26:14 437.432
UWE-3 05 Feb 21:26:20 21:30:16 34° 263° (W) 21:34:08 435.000/436.395/437.385
ANTELSAT 05 Feb 21:28:22 21:29:00 10° 88° (E) 21:29:37 437.575/2403.000
ISS 05 Feb 21:33:06 21:35:48 24° 8° (N) 21:38:30 145.825
DELFI C3 05 Feb 21:34:12 21:38:03 52° 260° (W) 21:41:59 145.870
TIGRISAT 05 Feb 21:35:52 21:37:36 12° 90° (E) 21:39:20 435.000
CUBEBUG 1 05 Feb 21:42:29 21:45:04 15° 62° (ENE) 21:47:40 437.445
Oscar 11 05 Feb 21:46:51 21:50:19 23° 266° (W) 21:53:48 145.826/435.025
UKube-1 05 Feb 21:47:14 21:50:16 19° 63° (ENE) 21:53:20 .
Cosmos 2499 05 Feb 21:48:40 21:57:19 87° 264° (W) 22:05:18 435.465 / 435.565
DX 1 05 Feb 21:50:29 21:53:59 24° 65° (ENE) 21:57:29 434.975-435.025
HUMSAT D 05 Feb 21:52:50 21:56:56 81° 258° (WSW) 22:01:02 437.325/437.525
UNISAT 6 05 Feb 22:17:00 22:20:58 35° 98° (E) 22:24:57 437.425
RS-15 05 Feb 22:21:56 22:33:39 57° 247° (WSW) 22:45:30 29.354- 29.394
VELOX 1 05 Feb 22:27:43 22:32:02 50° 72° (ENE) 22:36:22 145.980
NANOSAT C BR1 05 Feb 22:30:02 22:31:17 11° 89° (E) 22:32:32 145.865
DUCHIFAT 1 05 Feb 22:33:20 22:34:48 12° 89° (E) 22:36:17 145.980
QB50P1 05 Feb 22:34:47 22:36:50 13° 90° (E) 22:38:54 145.935-145.965
50 SAT 05 Feb 22:40:55 22:44:36 85° 76° (ENE) 22:48:21 437.505
AIST 2 05 Feb 22:42:40 22:44:03 11° 328° (NNW) 22:45:26 435.215
AISAT 05 Feb 22:43:22 22:47:50 77° 74° (ENE) 22:52:20 437.250
PCSat 05 Feb 22:44:24 22:47:17 15° 257° (WSW) 22:50:09 145.827
ESTCUBE 1 05 Feb 22:47:01 22:51:32 87° 76° (ENE) 22:56:06 437.505/2401.250
AIST 1 05 Feb 22:51:34 22:55:48 49° 267° (W) 22:59:58
ANTELSAT 05 Feb 23:01:56 23:06:15 77° 284° (WNW) 23:10:36 437.575/2403.000
ISS 05 Feb 23:09:28 23:12:42 62° 27° (NNE) 23:15:55 145.825
GONETS M04 05 Feb 23:09:36 23:13:48 15° 287° (WNW) 23:18:02
TIGRISAT 05 Feb 23:10:28 23:14:44 65° 286° (WNW) 23:19:02 435.000
CUBEBUG 1 05 Feb 23:16:29 23:20:53 62° 259° (W) 23:25:18 437.445
UKube-1 05 Feb 23:21:50 23:26:00 46° 260° (W) 23:30:13 .
POLYITAN 1 05 Feb 23:23:56 23:27:59 45° 99° (E) 23:32:01 437.675
QB50P2 05 Feb 23:24:48 23:28:54 48° 100° (E) 23:32:58 145.880/145.840
DX 1 05 Feb 23:25:56 23:30:00 36° 262° (W) 23:34:04 434.975-435.025
SPROUT 05 Feb 23:38:40 23:42:59 84° 73° (ENE) 23:47:18 437.525
Cosmos 2499 05 Feb 23:43:47 23:49:03 18° 285° (WNW) 23:54:08 435.465 / 435.565
BUGSAT 1 05 Feb 23:52:31 23:56:25 44° 99° (E) 00:00:17 437.445
UNISAT 6 05 Feb 23:54:07 23:57:32 23° 294° (WNW) 00:00:58 437.425
POPSAT HIP 1 05 Feb 23:55:43 23:59:56 81° 285° (WNW) 00:04:07 437.405
NANOSAT C BR1 06 Feb 00:03:19 00:07:30 68° 286° (WNW) 00:11:40 145.865
TISAT 1 06 Feb 00:05:05 00:09:16 63° 74° (ENE) 00:13:28 437.305
VELOX 1 06 Feb 00:05:51 00:08:47 17° 268° (W) 00:11:45 145.980
DUCHIFAT 1 06 Feb 00:06:48 00:10:58 65° 287° (WNW) 00:15:05 145.980
QB50P1 06 Feb 00:08:53 00:13:01 57° 287° (WNW) 00:17:07 145.935-145.965
ITUPSAT 1 06 Feb 00:08:56 00:11:46 16° 60° (ENE) 00:14:36 437.325
BEESAT 06 Feb 00:19:42 00:23:07 20° 62° (ENE) 00:26:33 436.000
AISAT 06 Feb 00:23:30 00:24:52 11° 271° (W) 00:26:14 437.250
RS-15 06 Feb 00:39:37 00:43:16 12° 268° (W) 00:46:55 29.354- 29.394
ISS 06 Feb 00:46:28 00:48:53 19° 225° (SW) 00:51:18 145.825
POLYITAN 1 06 Feb 01:00:39 01:03:28 18° 296° (WNW) 01:06:18 437.675
QB50P2 06 Feb 01:01:38 01:04:22 17° 297° (WNW) 01:07:05 145.880/145.840
Gurwin Techsat 1B 06 Feb 01:09:32 01:11:54 13° 88° (E) 01:14:15 435.225
SWISSCUBE 06 Feb 01:09:53 01:14:35 63° 72° (ENE) 01:19:19 437.505
Oscar 19 06 Feb 01:12:31 01:17:14 35° 97° (E) 01:21:54 437.125/150
BUGSAT 1 06 Feb 01:28:51 01:31:29 17° 297° (WNW) 01:34:06 437.445
KKS-1 06 Feb 01:34:58 01:37:41 16° 62° (ENE) 01:40:24 437.445
TISAT 1 06 Feb 01:43:32 01:45:21 12° 270° (W) 01:47:11 437.305
ITUPSAT 1 06 Feb 01:44:19 01:49:04 69° 258° (WSW) 01:53:51 437.325
DANDE 06 Feb 01:51:21 01:57:39 30° 83° (E) 02:04:38 436.750
CUSAT 1 06 Feb 01:53:47 02:01:10 50° 91° (E) 02:08:56 437.405
BEESAT 06 Feb 01:55:55 02:00:33 52° 260° (W) 02:05:13 436.000
Cosmos 2491 06 Feb 01:58:52 02:07:04 42° 71° (ENE) 02:15:13 435.465 / 435.565
BEESAT 3 06 Feb 02:04:59 02:08:20 25° 44° (NE) 02:11:39 437.485
JAS-2 06 Feb 02:10:39 02:16:39 77° 103° (ESE) 02:22:00 435.910
ITAMSAT 1 06 Feb 02:11:50 02:16:09 26° 94° (E) 02:20:28 435.822/435.867
BEESAT 2 06 Feb 02:21:15 02:24:37 25° 44° (NE) 02:27:55 435.950
MOZHAYETS 4 06 Feb 02:32:09 02:35:41 23° 65° (ENE) 02:39:14
Gurwin Techsat 1B 06 Feb 02:47:10 02:52:32 85° 285° (WNW) 02:57:52 435.225
SWISSCUBE 06 Feb 02:50:02 02:52:49 15° 270° (W) 02:55:37 437.505
Oscar 19 06 Feb 02:51:59 02:56:29 31° 294° (WNW) 03:00:57 437.125/150
YUBILEINY 06 Feb 02:53:01 03:00:39 35° 84° (E) 03:08:21 435.215
STARS 06 Feb 03:03:58 03:08:21 67° 73° (ENE) 03:12:43 437.465
KKS-1 06 Feb 03:09:23 03:13:48 60° 259° (W) 03:18:14 437.445
PHONESAT 2.4 06 Feb 03:21:55 03:24:36 23° 161° (SSE) 03:27:17 2401.200-2431.200
AO-7 06 Feb 03:23:12 03:30:42 36° 97° (E) 03:38:07 29.400- 29.500
Cosmos 2504 06 Feb 03:28:10 03:29:33 10° 69° (ENE) 03:30:56 435.465 / 435.565
DANDE 06 Feb 03:32:34 03:39:58 66° 285° (WNW) 03:48:27 436.750
CUSAT 1 06 Feb 03:36:17 03:43:38 42° 291° (WNW) 03:51:14 437.405
BEESAT 3 06 Feb 03:42:32 03:46:11 36° 243° (WSW) 03:49:49 437.485
AIST 2 06 Feb 03:42:34 03:45:48 21° 41° (NE) 03:48:59 435.215
ITAMSAT 1 06 Feb 03:50:51 03:55:49 44° 291° (WNW) 04:00:44 435.822/435.867
Cosmos 2491 06 Feb 03:55:47 04:03:57 47° 272° (W) 04:12:09 435.465 / 435.565
JAS-2 06 Feb 03:57:06 04:00:54 18° 305° (NW) 04:04:28 435.910
BEESAT 2 06 Feb 03:58:54 04:02:38 38° 242° (WSW) 04:06:19 435.950
MOZHAYETS 4 06 Feb 04:08:19 04:12:37 41° 262° (W) 04:16:57
HORYU 2 06 Feb 04:25:52 04:30:06 43° 99° (E) 04:34:20 437.375
Gurwin Techsat 1B 06 Feb 04:29:09 04:31:41 14° 304° (WNW) 04:34:13 435.225
CUBESAT XI-V 06 Feb 04:36:55 04:41:20 44° 71° (ENE) 04:45:50 437.345
M-CUBED/EXP-1 PRIME 06 Feb 04:37:00 04:40:19 75° 108° (ESE) 04:43:46 437.505
STARS 06 Feb 04:43:17 04:45:10 12° 270° (W) 04:47:04 437.465
YUBILEINY 06 Feb 04:48:29 04:57:03 55° 285° (WNW) 05:05:43 435.215
AUBIESAT-1 06 Feb 04:50:40 04:54:03 89° 289° (WNW) 04:57:32 437.475
PHONESAT 2.4 06 Feb 04:58:23 05:01:30 41° 177° (S) 05:04:36 2401.200-2431.200
Cubesat XI-IV 06 Feb 05:12:00 05:13:46 12° 87° (E) 05:15:33 437.490
Cosmos 2504 06 Feb 05:12:35 05:20:48 57° 90° (E) 05:29:24 435.465 / 435.565
STRAND 1 06 Feb 05:13:15 05:16:38 18° 60° (ENE) 05:20:03 437.568
AO-7 06 Feb 05:15:42 05:23:48 57° 296° (WNW) 05:31:50 29.400- 29.500
DANDE 06 Feb 05:19:57 05:24:47 17° 307° (NW) 05:29:51 436.750
AIST 2 06 Feb 05:20:33 05:24:35 52° 240° (WSW) 05:28:34 435.215
SO-50 06 Feb 05:57:01 06:01:43 49° 119° (ESE) 06:06:31 436.795
HORYU 2 06 Feb 06:03:06 06:06:24 21° 296° (WNW) 06:09:41 437.375
CUBESAT XI-V 06 Feb 06:15:23 06:18:56 21° 268° (W) 06:22:31 437.345
PRISM 06 Feb 06:28:29 06:31:53 25° 66° (ENE) 06:35:19 437.425
LilacSat-2 06 Feb 06:34:35 06:38:21 62° 101° (E) 06:42:06 437.200
PHONESAT 2.4 06 Feb 06:35:33 06:38:27 29° 195° (SSW) 06:41:22 2401.200-2431.200
CUTE-I 06 Feb 06:36:49 06:42:12 68° 102° (ESE) 06:47:33 437.470
Cubesat XI-IV 06 Feb 06:49:11 06:54:37 86° 104° (ESE) 07:00:00 437.490
STRAND 1 06 Feb 06:50:13 06:55:18 66° 258° (WSW) 07:00:25 437.568
YUBILEINY 06 Feb 06:53:10 06:56:17 12° 310° (NW) 06:59:26 435.215
GOMX 1 06 Feb 07:03:13 07:07:23 33° 95° (E) 07:11:19 467.674
DOVE 4 06 Feb 07:06:01 07:08:59 18° 91° (E) 07:11:52 437.250
Cosmos 2504 06 Feb 07:06:52 07:14:35 36° 292° (WNW) 07:22:37 435.465 / 435.565
AO-7 06 Feb 07:10:32 07:14:49 15° 319° (NW) 07:19:06 29.400- 29.500
BRITE-PL 06 Feb 07:13:42 07:18:43 87° 103° (ESE) 07:23:18 437.365/2234.400
CANX-2 06 Feb 07:29:47 07:32:23 16° 91° (E) 07:34:58 2200.000
SO-50 06 Feb 07:38:10 07:42:28 29° 318° (NW) 07:46:48 436.795
PRISM 06 Feb 08:03:25 08:07:06 31° 263° (W) 08:10:50 437.425
HO-68 06 Feb 08:03:30 08:10:13 40° 98° (E) 08:16:52 435.675
LilacSat-2 06 Feb 08:10:59 08:12:11 11° 298° (WNW) 08:13:22 437.200
PHONESAT 2.4 06 Feb 08:14:32 08:15:07 10° 210° (SSW) 08:15:42 2401.200-2431.200
CUTE-I 06 Feb 08:18:02 08:21:42 19° 300° (WNW) 08:25:23 437.470
GONETS M04 06 Feb 08:18:07 08:25:05 28° 81° (E) 08:32:04
CUTE 1.7 + AOD 2 06 Feb 08:20:00 08:24:09 46° 99° (E) 08:28:17 437.475
COMPASS 1 06 Feb 08:27:09 08:30:57 31° 96° (E) 08:34:44 437.405
ANTELSAT 06 Feb 08:28:32 08:30:25 13° 61° (ENE) 08:32:17 437.575/2403.000
CINEMA 3 06 Feb 08:29:50 08:33:53 47° 99° (E) 08:37:53 145.822/145.860
Cubesat XI-IV 06 Feb 08:30:57 08:33:58 15° 303° (WNW) 08:36:58 437.490
SEEDS 06 Feb 08:33:39 08:37:49 50° 99° (E) 08:41:57 437.485
TIGRISAT 06 Feb 08:36:20 08:38:41 15° 62° (ENE) 08:41:01 435.000
Cosmos 2499 06 Feb 08:37:31 08:42:15 16° 73° (ENE) 08:47:00 435.465 / 435.565
GOMX 1 06 Feb 08:41:35 08:45:21 25° 295° (WNW) 08:48:54 467.674
ZACube-1 06 Feb 08:42:41 08:44:28 12° 90° (E) 08:46:15 437.345
DOVE 4 06 Feb 08:42:51 08:46:58 42° 290° (WNW) 08:50:55 437.250
O/OREOS (USA 219) 06 Feb 08:51:23 08:55:47 61° 110° (ESE) 09:00:15 437.305
FUNcube-1 06 Feb 08:53:16 08:55:48 16° 91° (E) 08:58:22 145.935
BRITE-PL 06 Feb 08:54:14 08:56:21 13° 303° (WNW) 08:58:23 437.365/2234.400
AAUSAT CUBESAT 2 06 Feb 08:59:33 09:03:44 59° 101° (E) 09:07:52 437.432
CUBEBUG 2 06 Feb 09:04:21 09:08:18 41° 98° (E) 09:12:16 437.445
CANX-2 06 Feb 09:04:23 09:08:32 51° 288° (WNW) 09:12:42 2200.000
DELFI C3 06 Feb 09:11:23 09:14:10 18° 92° (E) 09:16:56 145.870
UWE-3 06 Feb 09:13:48 09:17:42 37° 98° (E) 09:21:38 435.000/436.395/437.385
UNISAT 6 06 Feb 09:17:29 09:21:30 38° 70° (ENE) 09:25:29 437.425
POPSAT HIP 1 06 Feb 09:18:00 09:18:37 10° 59° (ENE) 09:19:14 437.405
NANOSAT C BR1 06 Feb 09:24:15 09:25:49 12° 60° (ENE) 09:27:24 145.865
DUCHIFAT 1 06 Feb 09:27:22 09:29:05 12° 60° (ENE) 09:30:47 145.980
QB50P1 06 Feb 09:29:18 09:31:30 14° 62° (ENE) 09:33:42 145.935-145.965
Oscar 11 06 Feb 09:31:17 09:35:33 54° 100° (E) 09:39:48 145.826/435.025
HUMSAT D 06 Feb 09:36:01 09:38:17 14° 91° (E) 09:40:33 437.325/437.525
HO-68 06 Feb 09:51:13 09:57:58 44° 296° (WNW) 10:04:40 435.675
CUTE 1.7 + AOD 2 06 Feb 09:56:45 09:59:40 18° 296° (WNW) 10:02:34 437.475
ANTELSAT 06 Feb 10:02:15 10:06:37 72° 259° (W) 10:10:54 437.575/2403.000
COMPASS 1 06 Feb 10:02:58 10:06:24 25° 293° (WNW) 10:09:50 437.405
CINEMA 3 06 Feb 10:08:04 10:10:41 16° 297° (WNW) 10:13:17 145.822/145.860
SEEDS 06 Feb 10:10:24 10:13:09 17° 296° (WNW) 10:15:54 437.485
TIGRISAT 06 Feb 10:10:37 10:14:56 61° 259° (W) 10:19:11 435.000
GONETS M04 06 Feb 10:12:33 10:21:10 67° 282° (WNW) 10:29:53
ZACube-1 06 Feb 10:17:01 10:21:09 61° 287° (WNW) 10:25:20 437.345
POLYITAN 1 06 Feb 10:18:04 10:22:04 43° 71° (ENE) 10:26:06 437.675
QB50P2 06 Feb 10:18:54 10:22:56 45° 72° (ENE) 10:27:00 145.880/145.840
Cosmos 2499 06 Feb 10:25:09 10:33:45 75° 94° (E) 10:42:39 435.465 / 435.565
FUNcube-1 06 Feb 10:28:18 10:32:20 48° 288° (WNW) 10:36:25 145.935
O/OREOS (USA 219) 06 Feb 10:32:39 10:35:38 17° 309° (NW) 10:38:39 437.305
AISAT 06 Feb 10:33:57 10:35:54 13° 89° (E) 10:37:52 437.250
AAUSAT CUBESAT 2 06 Feb 10:36:28 10:38:46 14° 298° (WNW) 10:41:04 437.432
RS-15 06 Feb 10:38:56 10:46:38 22° 99° (E) 10:54:33 29.354- 29.394
ESTCUBE 1 06 Feb 10:39:04 10:41:58 16° 91° (E) 10:44:51 437.505/2401.250
CUBEBUG 2 06 Feb 10:41:44 10:44:41 19° 295° (WNW) 10:47:38 437.445
BUGSAT 1 06 Feb 10:43:36 10:47:34 40° 71° (ENE) 10:51:30 437.445
JAS-2 06 Feb 10:45:25 10:46:04 10° 48° (NE) 10:46:43 435.910
DELFI C3 06 Feb 10:45:28 10:49:15 39° 289° (WNW) 10:53:02 145.870
POPSAT HIP 1 06 Feb 10:49:29 10:53:45 89° 266° (W) 10:58:00 437.405
UWE-3 06 Feb 10:50:52 10:53:58 20° 294° (WNW) 10:57:05 435.000/436.395/437.385
UNISAT 6 06 Feb 10:55:05 10:58:22 21° 267° (W) 11:01:38 437.425
AO-85 06 Feb 10:56:26 11:01:12 34° 114° (ESE) 11:06:07 145.980
NANOSAT C BR1 06 Feb 10:56:45 11:01:00 76° 258° (WSW) 11:05:14 145.865
DUCHIFAT 1 06 Feb 11:00:00 11:04:13 73° 258° (WSW) 11:08:28 145.980
QB50P1 06 Feb 11:02:36 11:06:48 63° 259° (WSW) 11:11:02 145.935-145.965
CUBEBUG 1 06 Feb 11:04:10 11:07:34 21° 93° (E) 11:10:54 437.445
UKube-1 06 Feb 11:07:40 11:11:15 25° 95° (E) 11:14:48 .
Oscar 11 06 Feb 11:08:34 11:11:16 16° 297° (WNW) 11:13:58 145.826/435.025
HUMSAT D 06 Feb 11:10:12 11:14:14 52° 287° (WNW) 11:18:18 437.325/437.525
DX 1 06 Feb 11:12:19 11:16:15 32° 97° (E) 11:20:10 434.975-435.025
AIST 1 06 Feb 11:21:57 11:26:20 89° 98° (E) 11:30:47
SPROUT 06 Feb 11:25:03 11:26:58 13° 90° (E) 11:28:51 437.525
PCSat 06 Feb 11:42:15 11:47:31 55° 116° (ESE) 11:52:50 145.827
50 SAT 06 Feb 11:44:46 11:48:35 88° 273° (W) 11:52:23 437.505
VELOX 1 06 Feb 11:52:28 11:56:55 81° 101° (ESE) 12:01:20 145.980
POLYITAN 1 06 Feb 11:55:10 11:58:06 18° 268° (W) 12:01:02 437.675
QB50P2 06 Feb 11:56:10 11:58:59 17° 268° (W) 12:01:50 145.880/145.840
AISAT 06 Feb 12:08:28 12:12:52 66° 287° (WNW) 12:17:13 437.250
ESTCUBE 1 06 Feb 12:14:40 12:19:07 54° 288° (WNW) 12:23:32 437.505/2401.250
GONETS M04 06 Feb 12:15:25 12:19:59 15° 306° (NW) 12:24:34
BUGSAT 1 06 Feb 12:20:03 12:23:07 19° 267° (W) 12:26:09 437.445
Cosmos 2499 06 Feb 12:20:34 12:27:46 28° 296° (WNW) 12:35:09 435.465 / 435.565
JAS-2 06 Feb 12:22:19 12:29:35 47° 67° (ENE) 12:36:17 435.910
CUSAT 1 06 Feb 12:30:22 12:36:23 35° 66° (ENE) 12:41:07 437.405
DANDE 06 Feb 12:30:28 12:36:43 26° 60° (ENE) 12:41:58 436.750
Oscar 19 06 Feb 12:30:45 12:35:51 61° 72° (ENE) 12:40:59 437.125/150
Gurwin Techsat 1B 06 Feb 12:31:24 12:35:42 26° 63° (ENE) 12:40:02 435.225
AO-7 06 Feb 12:36:26 12:40:43 15° 41° (NE) 12:45:00 29.400- 29.500
AO-85 06 Feb 12:36:29 12:41:40 44° 313° (NW) 12:46:57 145.980
CUBEBUG 1 06 Feb 12:39:55 12:44:00 38° 290° (WNW) 12:48:00 437.445
UKube-1 06 Feb 12:43:28 12:47:21 32° 292° (WNW) 12:51:11 .
RS-15 06 Feb 12:45:57 12:57:07 84° 121° (ESE) 13:08:55 29.354- 29.394
SO-50 06 Feb 12:47:31 12:50:26 16° 31° (NNE) 12:53:19 436.795
DX 1 06 Feb 12:48:44 12:52:20 26° 294° (WNW) 12:55:55 434.975-435.025
SPROUT 06 Feb 12:59:08 13:03:21 62° 286° (WNW) 13:07:33 437.525
YUBILEINY 06 Feb 13:00:51 13:06:51 19° 58° (ENE) 13:12:49 435.215
SWISSCUBE 06 Feb 13:09:57 13:12:31 14° 90° (E) 13:15:03 437.505
TISAT 1 06 Feb 13:23:01 13:27:14 90° 262° (W) 13:31:24 437.305
PCSat 06 Feb 13:26:37 13:31:14 28° 315° (NW) 13:35:53 145.827
VELOX 1 06 Feb 13:31:02 13:32:45 12° 301° (WNW) 13:34:29 145.980
ITAMSAT 1 06 Feb 13:31:13 13:36:08 46° 69° (ENE) 13:41:06 435.822/435.867
